Location: Taukkyan
(23.1052°N, 94.0030°E)
Time: 11:04:35
(UTC+00:00)

ERS-1 Rocket - Pass Details

Date: 06 July 2020
Orbit: 752 x 758 km, 98.5° (Epoch: 15 August)

Event Time Altitude Azimuth Distance (km) Brightness Sun altitude
Exits shadow 15:16:50 29° 21° (NNE) 1,361 4.4 -31.2°
Drops below altitude 10° 15:19:31 10° 3° (N) 2,286 5.9 -31.6°
Sets 15:21:53 0° 357° (N) 3,213 6.9 -32.0°
